• In Uzbekistan
  • List of Countries
  • For 7 days
  • Water Temperature
  • Satellite Maps
  • Weather Map
  • Weather Widgets
  • user-avatar
    Login

    Hourly Weather Viedma

    Today, 26 May, Friday

    Time Temperature Precipitation Wind Pressure Humidity
    00:00 +9°C° 0 mm 5 mps 757 mmHg 60%
    01:00 +9°C° 0 mm 6 mps 757 mmHg 63%
    02:00 +9°C° 0 mm 6 mps 757 mmHg 64%
    03:00 +9°C° 0 mm 6 mps 758 mmHg 67%
    04:00 +9°C° 0 mm 6 mps 759 mmHg 69%
    05:00 +9°C° 0 mm 7 mps 760 mmHg 71%
    06:00 +9°C° 0 mm 7 mps 760 mmHg 71%
    07:00 +8°C° 0 mm 7 mps 761 mmHg 71%
    08:00 +8°C° 0 mm 7 mps 762 mmHg 70%
    09:00 +9°C° 0 mm 7 mps 763 mmHg 63%
    10:00 +10°C° 0 mm 8 mps 764 mmHg 57%
    11:00 +11°C° 0 mm 9 mps 765 mmHg 50%
    12:00 +11°C° 0 mm 9 mps 766 mmHg 48%
    13:00 +11°C° 0 mm 9 mps 766 mmHg 47%
    14:00 +11°C° 0 mm 8 mps 766 mmHg 45%
    15:00 +10°C° 0 mm 8 mps 767 mmHg 47%
    16:00 +9°C° 0 mm 7 mps 767 mmHg 50%
    17:00 +9°C° 0 mm 6 mps 767 mmHg 52%
    18:00 +8°C° 0 mm 5 mps 768 mmHg 54%
    19:00 +8°C° 0 mm 5 mps 768 mmHg 56%
    20:00 +7°C° 0 mm 4 mps 769 mmHg 58%
    21:00 +7°C° 0 mm 4 mps 769 mmHg 59%
    22:00 +8°C° 0 mm 3 mps 770 mmHg 60%
    23:00 +8°C° 0 mm 3 mps 770 mmHg 61%

    Tomorrow, 27 May, Saturday

    Time Temperature Precipitation Wind Pressure Humidity
    00:00 +7°C° 0 mm 3 mps 770 mmHg 61%
    01:00 +7°C° 0 mm 2 mps 770 mmHg 61%
    02:00 +7°C° 0 mm 2 mps 770 mmHg 61%
    03:00 +7°C° 0 mm 3 mps 770 mmHg 62%
    04:00 +7°C° 0 mm 3 mps 770 mmHg 62%
    05:00 +5°C° 0 mm 3 mps 770 mmHg 63%
    06:00 +5°C° 0 mm 3 mps 770 mmHg 62%
    07:00 +5°C° 0 mm 3 mps 770 mmHg 62%
    08:00 +5°C° 0 mm 4 mps 770 mmHg 62%
    09:00 +7°C° 0 mm 4 mps 770 mmHg 56%
    10:00 +8°C° 0 mm 5 mps 771 mmHg 51%
    11:00 +10°C° 0 mm 5 mps 771 mmHg 46%
    12:00 +10°C° 0 mm 5 mps 770 mmHg 44%
    13:00 +12°C° 0 mm 5 mps 769 mmHg 42%
    14:00 +12°C° 0 mm 5 mps 769 mmHg 40%
    15:00 +12°C° 0 mm 5 mps 768 mmHg 42%
    16:00 +10°C° 0 mm 5 mps 768 mmHg 44%
    17:00 +10°C° 0 mm 4 mps 768 mmHg 46%
    18:00 +9°C° 0 mm 5 mps 768 mmHg 47%
    19:00 +8°C° 0 mm 5 mps 768 mmHg 48%
    20:00 +8°C° 0 mm 5 mps 768 mmHg 50%
    21:00 +7°C° 0 mm 5 mps 767 mmHg 51%
    22:00 +7°C° 0 mm 6 mps 767 mmHg 53%
    23:00 +7°C° 0 mm 6 mps 767 mmHg 55%

    Day after tomorrow, 28 May, Sunday

    Time Temperature Precipitation Wind Pressure Humidity
    00:00 +7°C° 0 mm 6 mps 767 mmHg 58%
    01:00 +5°C° 0 mm 6 mps 767 mmHg 61%
    02:00 +5°C° 0 mm 6 mps 766 mmHg 64%
    03:00 +5°C° 0 mm 6 mps 766 mmHg 66%
    04:00 +5°C° 0 mm 6 mps 766 mmHg 68%
    05:00 +4°C° 0 mm 6 mps 765 mmHg 70%
    06:00 +4°C° 0 mm 6 mps 765 mmHg 72%
    07:00 +4°C° 0 mm 6 mps 765 mmHg 73%
    08:00 +4°C° 0 mm 6 mps 765 mmHg 74%
    09:00 +5°C° 0 mm 6 mps 765 mmHg 69%
    10:00 +8°C° 0 mm 7 mps 765 mmHg 63%
    11:00 +9°C° 0 mm 7 mps 765 mmHg 58%
    12:00 +10°C° 0 mm 7 mps 764 mmHg 56%
    13:00 +11°C° 0 mm 7 mps 764 mmHg 53%
    14:00 +12°C° 0 mm 7 mps 763 mmHg 51%
    15:00 +11°C° 0 mm 6 mps 763 mmHg 54%
    16:00 +12°C° 0 mm 5 mps 763 mmHg 57%
    17:00 +10°C° 0 mm 5 mps 763 mmHg 59%
    18:00 +10°C° 0 mm 5 mps 763 mmHg 62%
    19:00 +9°C° 0 mm 5 mps 763 mmHg 64%
    20:00 +9°C° 0 mm 5 mps 763 mmHg 66%
    21:00 +8°C° 0 mm 4 mps 763 mmHg 69%
    22:00 +8°C° 0 mm 4 mps 764 mmHg 71%
    23:00 +8°C° 0 mm 4 mps 764 mmHg 74%

    29 May, Monday

    Time Temperature Precipitation Wind Pressure Humidity
    00:00 +8°C° 0 mm 4 mps 764 mmHg 76%
    01:00 +7°C° 0 mm 4 mps 764 mmHg 79%
    02:00 +7°C° 0 mm 4 mps 764 mmHg 81%
    03:00 +7°C° 0 mm 4 mps 764 mmHg 82%
    04:00 +8°C° 0 mm 3 mps 764 mmHg 84%
    05:00 +8°C° 0 mm 3 mps 764 mmHg 85%
    06:00 +8°C° 0 mm 3 mps 765 mmHg 84%
    07:00 +8°C° 0 mm 3 mps 765 mmHg 83%
    08:00 +8°C° 0 mm 3 mps 765 mmHg 82%
    09:00 +10°C° 0 mm 3 mps 766 mmHg 75%
    10:00 +11°C° 0 mm 3 mps 766 mmHg 68%
    11:00 +13°C° 0 mm 3 mps 766 mmHg 61%
    12:00 +13°C° 0 mm 3 mps 766 mmHg 59%
    13:00 +13°C° 0 mm 4 mps 766 mmHg 57%
    14:00 +14°C° 0 mm 4 mps 766 mmHg 56%
    15:00 +13°C° 0 mm 3 mps 766 mmHg 60%
    16:00 +12°C° 0 mm 3 mps 766 mmHg 65%
    17:00 +11°C° 0 mm 3 mps 767 mmHg 70%
    18:00 +10°C° 0 mm 2 mps 767 mmHg 73%
    19:00 +10°C° 0 mm 2 mps 767 mmHg 76%
    20:00 +9°C° 0 mm 2 mps 768 mmHg 79%
    21:00 +9°C° 0 mm 1 mps 768 mmHg 81%
    22:00 +9°C° 0 mm 1 mps 768 mmHg 83%
    23:00 +9°C° 0 mm 1 mps 768 mmHg 85%

    30 May, Tuesday

    Time Temperature Precipitation Wind Pressure Humidity
    00:00 +9°C° 0 mm 1 mps 768 mmHg 85%
    01:00 +8°C° 0 mm 1 mps 767 mmHg 85%
    02:00 +7°C° 0 mm 2 mps 767 mmHg 85%
    03:00 +7°C° 0 mm 2 mps 767 mmHg 86%
    04:00 +7°C° 0 mm 2 mps 767 mmHg 86%
    05:00 +7°C° 0 mm 2 mps 767 mmHg 87%
    06:00 +7°C° 0 mm 2 mps 767 mmHg 87%
    07:00 +7°C° 0 mm 2 mps 767 mmHg 87%
    08:00 +7°C° 0 mm 3 mps 767 mmHg 87%
    09:00 +9°C° 0 mm 3 mps 767 mmHg 80%
    10:00 +11°C° 0 mm 4 mps 767 mmHg 73%
    11:00 +12°C° 0 mm 4 mps 767 mmHg 65%
    12:00 +13°C° 0 mm 5 mps 766 mmHg 62%
    13:00 +14°C° 0 mm 5 mps 766 mmHg 58%
    14:00 +14°C° 0 mm 5 mps 765 mmHg 54%
    15:00 +14°C° 0 mm 5 mps 765 mmHg 57%
    16:00 +13°C° 0 mm 5 mps 764 mmHg 60%
    17:00 +12°C° 0 mm 5 mps 764 mmHg 62%
    18:00 +12°C° 0 mm 5 mps 764 mmHg 64%
    19:00 +10°C° 0 mm 5 mps 764 mmHg 65%
    20:00 +10°C° 0 mm 6 mps 764 mmHg 67%
    21:00 +9°C° 0 mm 6 mps 764 mmHg 70%
    22:00 +9°C° 0 mm 6 mps 764 mmHg 72%
    23:00 +9°C° 0 mm 6 mps 764 mmHg 75%

    31 May, Wednesday

    Time Temperature Precipitation Wind Pressure Humidity
    00:00 +9°C° 0 mm 6 mps 764 mmHg 77%
    01:00 +8°C° 0 mm 7 mps 764 mmHg 80%
    02:00 +8°C° 0 mm 7 mps 764 mmHg 82%
    03:00 +8°C° 0 mm 7 mps 763 mmHg 84%
    04:00 +8°C° 0 mm 7 mps 763 mmHg 86%
    05:00 +8°C° 0 mm 7 mps 762 mmHg 88%
    06:00 +8°C° 0 mm 7 mps 762 mmHg 89%
    07:00 +8°C° 0 mm 7 mps 762 mmHg 90%
    08:00 +8°C° 0 mm 7 mps 762 mmHg 91%
    09:00 +9°C° 0 mm 7 mps 762 mmHg 84%
    10:00 +11°C° 0 mm 8 mps 762 mmHg 77%
    11:00 +12°C° 0 mm 8 mps 762 mmHg 70%
    12:00 +13°C° 0 mm 8 mps 761 mmHg 64%
    13:00 +15°C° 0 mm 7 mps 761 mmHg 58%
    14:00 +16°C° 0 mm 7 mps 760 mmHg 52%
    15:00 +15°C° 0 mm 6 mps 760 mmHg 54%
    16:00 +14°C° 0 mm 5 mps 760 mmHg 56%
    17:00 +13°C° 0 mm 4 mps 760 mmHg 57%
    18:00 +13°C° 0 mm 4 mps 761 mmHg 58%
    19:00 +12°C° 0 mm 4 mps 761 mmHg 59%
    20:00 +11°C° 0 mm 3 mps 761 mmHg 61%
    21:00 +11°C° 0 mm 3 mps 761 mmHg 62%
    22:00 +11°C° 0 mm 3 mps 761 mmHg 63%
    23:00 +10°C° 0 mm 3 mps 761 mmHg 64%
    Show more